Regional Weather Roundup
Issued by NWS Kansas City/Pleasant Hill, MO

Home | Current Version | Previous Version | Graphics & Text | Print | Product List | Glossary Off
Versions: 1 2 3 4 5 6 7 8 9 10 11 12 13 14 15 16 17 18 19 20 21 22 23 24 25 26 27 28 29 30 31 32 33 34 35 36 37 38 39 40 41 42 43 44 45 46 47 48 49 50

000
ASUS43 KEAX 301210
RWREAX

WEATHER ROUNDUP FOR EASTERN KANSAS AND NORTHWEST MISSOURI
NATIONAL WEATHER SERVICE KANSAS CITY/PLEASANT HILL MO
700 AM CDT SUN APR 30 2017

KSZ040-057-103>105-MOZ028-029-037-043-301300-
...KANSAS CITY METROPOLITAN AREA...

CITY           SKY/WX    TMP DP  RH WIND       PRES   REMARKS
K.C. INTL      FOG       43  42  97 E16       29.60R VSB 1
6HR MIN TEMP:  42; 6HR MAX TEMP:  44; 6HR PCP:  0.05;

K.C. DOWNTOWN  CLOUDY   N/A N/A N/A E10       29.62R FOG
                                      6HR PCP: TRACE;

LEES SUMMIT    CLOUDY    45  45 100 NE15      29.60R FOG
6HR MIN TEMP:  44; 6HR MAX TEMP:  52; 6HR PCP: TRACE;

OLATHE - IXD   TSTM      44  44 100 NE10      29.59R FOG
6HR MIN TEMP:  43; 6HR MAX TEMP:  47; 6HR PCP:  0.05;

OLATHE - OJC   LGT RAIN  44  44 100 NE13G23   29.58R FOG
6HR MIN TEMP:  43; 6HR MAX TEMP:  49; 6HR PCP:  0.03;

LAWRENCE       TSTM      43  43 100 N9        29.62R VSB 1

$$

MOZ001>008-011>017-020>025-030>033-038>040-044>046-053-054-301300-
...NORTHERN AND CENTRAL MISSOURI...

CITY           SKY/WX    TMP DP  RH WIND       PRES   REMARKS
ST. JOSEPH     CLOUDY    42  42 100 NE16G26   29.61F FOG     WCI  34
6HR MIN TEMP:  42; 6HR MAX TEMP:  42; 6HR PCP: TRACE;

MOSBY          CLOUDY    45  43  93 E12G20    29.59F FOG
WHITEMAN AFB   LGT RAIN  54  54 100 NE12      29.57S
6HR MIN TEMP:  45; 6HR MAX TEMP:  55; 6HR PCP:  0.14;

CLINTON        TSTM      59  59 100 E6        29.57R
SEDALIA        LGT RAIN  58  58 100 E12       29.61F
6HR MIN TEMP:  47; 6HR MAX TEMP:  58; 6HR PCP:  0.33;

WARSAW         NOT AVBL
CHILLICOTHE      N/A     45  44  97 NE8       29.67F
6HR MIN TEMP:  43; 6HR MAX TEMP:  45; 6HR PCP:  0.03;

KIRKSVILLE     CLOUDY    44  32  62 NE18G30   29.69S HAZE
6HR MIN TEMP:  41; 6HR MAX TEMP:  45; 6HR PCP:  0.18;


$$

MOZ041-047>049-056>058-063>065-088>090-097-301300-
...EASTERN AND SOUTHERN MISSOURI...

CITY           SKY/WX    TMP DP  RH WIND       PRES   REMARKS
ST. LOUIS INTL FOG       54  51  90 SE10      29.71F VSB 1
6HR MIN TEMP:  51; 6HR MAX TEMP:  55; 6HR PCP:  1.21;

SPIRIT OF STL  LGT RAIN  54  54 100 SE12      29.70F
COLUMBIA       CLOUDY    55  55 100 SE13G24   29.64S FOG
JEFFERSON CITY MOCLDY    59  55  87 E9        29.63S
ROLLA          RAIN      61  50  67 E21G29    29.64R
OSAGE BEACH    LGT RAIN  63  61  94 SE13      29.61F
SPRINGFIELD    HVY RAIN  64  62  93 SE14      29.55F FOG
BRANSON        LGT RAIN  63  63 100 SE8       29.63S VSB 1
JOPLIN         CLOUDY    59  58  96 SE9       29.52F

$$

IAZ060-094-KSZ022-034>040-054-083-096-NEZ052-066-093-301300-
...KANSAS...SOUTHEAST NEBRASKA AND IOWA...

CITY           SKY/WX    TMP DP  RH WIND       PRES   REMARKS
TOPEKA         LGT RAIN  43  43 100 NE13      29.60R FOG
6HR MIN TEMP:  43; 6HR MAX TEMP:  44; 6HR PCP:  0.21;

MANHATTAN      LGT RAIN  41  50 100 NE25G33   29.52F WCI  31
EMPORIA        CLOUDY    42  42 100 NE22G30   29.44F WCI  33
CHANUTE        CLOUDY    58  57  97 S18       29.49R
WICHITA        CLOUDY    43  43 100 E9        29.48F FOG
OMAHA          CLOUDY    39  35  86 NE17G31   29.77F WCI  30
LINCOLN        LGT RAIN  39  37  92 NE22G29   29.75S FOG     WCI  29
FALLS CITY     LGT RAIN  41  40  96 NE10      29.67R FOG     WCI  35
LAMONI         CLOUDY    41  40  96 NE18G29   29.69F FOG     WCI  32
DES MOINES     CLOUDY    41  39  93 NE20      29.78F WCI  32

$$




USA.gov is the U.S. government's official web portal to all federal, state and local government web resources and services.